Tetonia, ID

12:33 AM MDT on August 27, 2016 (GMT -0600)
Driggs

Weather History for KDIJ - December, 2012

Change the Weather History Date:

Tuesday, December 11, 2012

  Actual Average (KRXE) Record (KRXE)
Temperature  
Mean Temperature 26 °F 21 °F  
Max Temperature 32 °F 29 °F 56 °F (2014)
Min Temperature 20 °F 13 °F -11 °F (2009)
Degree Days  
Heating Degree Days 39 44  
Month to date heating degree days 472  
Since 1 July heating degree days 2484  
Cooling Degree Days 0 0  
Month to date cooling degree days 0  
Year to date cooling degree days 208  
Moisture  
Dew Point 21 °F    
Average Humidity 76    
Maximum Humidity 86    
Minimum Humidity 65    
Precipitation  
Precipitation 0.00 in 0.02 in 0.07 in (1990)
Month to date precipitation 0.27  
Year to date precipitation 12.30  
Sea Level Pressure  
Sea Level Pressure 29.88 in    
Wind  
Wind Speed 11 mph (SSE)    
Max Wind Speed 17 mph    
Max Gust Speed -    
Visibility 9 miles    
Events Snow    
T = Trace of Precipitation, MM = Missing Value Source: NWS Daily Summary

Daily Weather History Graph

Daily Weather History Graph

Search for Another Location

Airport or City:

Trip Planner

Search our weather history database for the weather conditions in past years. The results will help you decide how hot, cold, wet, or windy it might be!

Date:

Astronomy

Dec. 11, 2012 Rise Set
Actual Time 7:48 AM MST 4:47 PM MST
Civil Twilight 7:15 AM MST 5:20 PM MST
Nautical Twilight 6:39 AM MST 5:56 PM MST
Astronomical Twilight 6:04 AM MST 6:31 PM MST
Moon 5:45 AM MST (12/11) 3:30 PM MST (12/11)
Length of Visible Light 10h 04m
Length of Day
8h 58m
Waning Crescent, 4% of the Moon is Illuminated
Dec 11
Waning Crescent
Dec 13
New
Dec 19
First Quarter
Dec 28
Full
Jan 4
Last Quarter

Hourly Weather History & Observations

Time (MST) Temp. Windchill Dew Point Humidity Pressure Visibility Wind Dir Wind Speed Gust Speed Precip Events Conditions
12:56 AM 24.1 °F 18.2 °F 16.2 °F 72% 30.02 in 10.0 mi ESE 4.6 mph - N/A   Overcast
1:56 AM 23.0 °F 12.4 °F 17.1 °F 78% 30.02 in 10.0 mi SSE 10.4 mph - N/A   Overcast
2:56 AM 24.1 °F 11.5 °F 17.1 °F 75% 30.01 in 10.0 mi South 15.0 mph - N/A   Overcast
3:56 AM 24.1 °F 13.1 °F 17.1 °F 75% 30.01 in 10.0 mi SSE 11.5 mph - N/A   Overcast
4:56 AM 24.1 °F 13.1 °F 17.1 °F 75% 30.02 in 10.0 mi SSE 11.5 mph - N/A   Overcast
5:56 AM 24.1 °F 15.2 °F 17.1 °F 75% 30.01 in 10.0 mi SE 8.1 mph - N/A   Overcast
6:56 AM 20.1 °F 9.5 °F 15.1 °F 81% 30.00 in 10.0 mi South 9.2 mph - N/A   Partly Cloudy
7:56 AM 23.0 °F 9.6 °F 17.1 °F 78% 29.99 in 10.0 mi South 16.1 mph - N/A   Overcast
8:56 AM 26.1 °F 15.6 °F 19.0 °F 75% 30.00 in 10.0 mi South 11.5 mph - N/A   Overcast
9:15 AM 26.6 °F 15.2 °F 19.4 °F 74% 29.93 in 10.0 mi South 13.8 mph - N/A   Overcast
10:20 AM 26.6 °F 13.8 °F 21.2 °F 80% 29.91 in 10.0 mi South 17.3 mph - N/A   Mostly Cloudy
10:56 AM 28.0 °F 17.5 °F 21.0 °F 75% 29.96 in 10.0 mi South 12.7 mph - N/A   Overcast
11:16 AM 28.4 °F 19.1 °F 23.0 °F 80% 29.92 in 5.0 mi South 10.4 mph - 0.00 in Snow Light Snow
11:56 AM 29.1 °F 18.9 °F 24.1 °F 81% 29.91 in 4.0 mi SSE 12.7 mph - 0.00 in Snow Light Snow
12:04 PM 28.4 °F 17.0 °F 24.8 °F 86% 29.87 in 3.0 mi SSE 15.0 mph - 0.00 in Snow Light Snow
12:13 PM 28.4 °F 18.0 °F 24.8 °F 86% 29.87 in 5.0 mi SSE 12.7 mph - 0.00 in Snow Light Snow
12:56 PM 30.0 °F 20.0 °F 23.0 °F 75% 29.87 in 10.0 mi South 12.7 mph - 0.00 in   Overcast
1:56 PM 30.0 °F 19.5 °F 24.1 °F 79% 29.84 in 10.0 mi SSW 13.8 mph - N/A   Overcast
2:56 PM 30.0 °F 19.5 °F 24.1 °F 79% 29.82 in 10.0 mi South 13.8 mph - N/A   Overcast
3:56 PM 30.0 °F 20.5 °F 24.1 °F 79% 29.81 in 10.0 mi SSE 11.5 mph - 0.00 in   Overcast
4:56 PM 31.1 °F 21.9 °F 24.1 °F 75% 29.78 in 10.0 mi South 11.5 mph - 0.00 in   Overcast
5:56 PM 31.1 °F 21.4 °F 24.1 °F 75% 29.77 in 10.0 mi South 12.7 mph - N/A   Overcast
6:56 PM 31.1 °F 23.1 °F 24.1 °F 75% 29.79 in 10.0 mi South 9.2 mph - N/A   Overcast
7:28 PM 30.2 °F 21.3 °F 24.8 °F 80% 29.76 in 10.0 mi South 10.4 mph - N/A   Overcast
7:56 PM 31.1 °F 21.4 °F 24.1 °F 75% 29.76 in 10.0 mi South 12.7 mph - N/A   Overcast
8:56 PM 31.1 °F 23.7 °F 23.0 °F 72% 29.72 in 10.0 mi SE 8.1 mph - N/A   Mostly Cloudy
9:56 PM 31.1 °F 27.7 °F 22.1 °F 69% 29.70 in 10.0 mi ESE 3.5 mph - N/A   Overcast
10:56 PM 32.0 °F 25.6 °F 22.1 °F 67% 29.69 in 10.0 mi SE 6.9 mph - N/A   Overcast
11:56 PM 32.9 °F 26.7 °F 22.1 °F 65% 29.67 in 10.0 mi South 6.9 mph - N/A   Mostly Cloudy